Погода в Астане

Хотите узнать прогноз погоды Астана? Тогда Вам сюда: Погода Астана

Поиск расширенной информации на нашем сайте:

Полезная информация:

Новости сайта



02.01.2020
Опубликован Долгосрочный прогноз погоды по городам России и ближнего зарубежья на январь 2020 года.
Карты: Прогноз на январь и февраль 2020 года, Сравнение прогнозируемой аномалии приземной температуры воздуха на январь 2020 года по разным моделям.




Погода в Астане - сегодня

Время (UTC), дата Ветер
(°,м/с) 
Видим.   Явления Облачность Т
(°С)
Тd
(°С)
f(%) Тe
(°С)
Pmin
(гПа)
dP
(гПа)
Po
(мм)
O2
(г/м3)
Тmin Tmax R s Состояние
почвы
09 22.10.21 220 (ЮЗ) 6{15}  10 км    10/8 600 м средняя 
[Sc|Ac und]
+3.7 -5.4 51 +1  1020.3  -0.3  733  292           
12 22.10.21 210 (ЮЗ) 5{16}  10 км  в посл. час ливневой дождь  10/10 600 м кучево-дожд. 
[Cb cap]
+2.7 -2.4 69 1020.6  0.2  733  293           
15 22.10.21 210 (ЮЗ) 5{15}  н/о  в посл. час ливневой дождь  10/10 600 м кучево-дожд. 
[Cb cap]
+1.4 -0.2 89 -1  1022.1  1.2  734  294    +4       
18 22.10.21 210 (ЮЗ) 5{16}  н/о  {ливн. осадки}  10/10 600 м кучево-дожд. 
[Cb cap]
+1.3 -0.3 89 -1  1022.3  0.2  734  294    +4  0.6     
21 22.10.21 200 (Ю) 5{15}  н/о  слаб. ливневой снег  10/10 600 м кучево-дожд. 
[Cb cap]
+1.1 +0.3 94 -2  1022.3  734  295           
00 23.10.21 180 (Ю) н/о  в посл. час ливневой дождь  10/10 600 м кучево-дожд. 
[Cb cap]
+1.5 +0.7 94 -1  1021.4  -0.8  734  294           
03 23.10.21 190 (Ю) 10 км    10/8 1000 м средняя 
[Sc|Ac und]
+3.7 +0.6 80 +1  1021  -0.1  734  292           
06 23.10.21 220 (ЮЗ) 10 км    9/6 1000 м средняя 
[Sc|Ac As]
+5.8 +1 71 +4  1021.3  0.6  734  289  +0.9    0.9     
09 23.10.21 220 (ЮЗ) 10 км    8/5 1000 м средняя, верхняя 
[Sc|Ac lent|Ci]
+10.4 +1.1 52 +9  1020.2  -0.4  734  285           
12 23.10.21 220 (ЮЗ) 10 км    10/5 1000 м средняя, верхняя 
[Sc|Ac lent|Ci]
+10.6 +3.1 60 +10  1020.6  0.5  734  284           
15 23.10.21 220 (ЮЗ) н/о    ясно 
+9.1 +4.9 75 +8  1022.6  1.7  735  286    +11.5       
18 23.10.21 220 (ЮЗ) н/о    10/10 600 м 
[Sc]
+9.6 +5.2 74 +9  1023.5  0.9  736  286    +11.5       
21 23.10.21 230 (ЮЗ) н/о    10/10 600 м 
[Sc]
+9.1 +5.1 76 +9  1024.2  0.6  737  286           
00 24.10.21 200 (Ю) н/о    6/6 600 м 
[Sc]
+6.9 +3.4 78 +6  1025  0.4  737  289           
03 24.10.21 210 (ЮЗ) 10 км    8/8 600 м 
[Sc]
+6.5 +2.1 73 +6  1025.9  0.8  737  290           
06 24.10.21 230 (ЮЗ) 10 км    8/8 1000 м 
[Sc]
+12.4 +2.4 50 +12  1024.9  -0.1  737  284  +5.2         
09 24.10.21 230 (ЮЗ) 10 км    9/9 600 м 
[Sc]
+13.1 +0.6 42 +13  1024.4  -0.4  737  283           
12 24.10.21 210 (ЮЗ) 10 км    4/4 1000 м 
[Sc diur, vesp]
+12.6 +0.2 42 +14  1023.7  -0.7  737  284           
15 24.10.21 190 (Ю) н/о    ясно 
+9.5 -2.2 44 +9  1023.7  -0.5  736  287    +13.5       
18 24.10.21 200 (Ю) н/о    ясно 
+7.6 -3.7 45 +7  1023.1  -0.8  736  289    +13.5       
21 24.10.21 180 (Ю) н/о    ясно 
+6.1 -2.3 55 +5  1022.1  -1.2  735  290           
00 25.10.21 190 (Ю) н/о    4/4 1000 м 
[Sc]
+4.6 -1 67 +4  1021.3  -1  734  291           
03 25.10.21 190 (Ю) 10 км    4/0 средняя, верхняя 
[Ac trans|Ci fib]
+3.6 -2.6 64 +2  1021.4  734  292           
06 25.10.21 200 (Ю) 10 км    10/0 средняя, верхняя 
[Ac trans|Ci fib]
+9.1 -2.1 45 +9  1019.9  -0.7  733  286  +3.6         
09 25.10.21 190 (Ю) 10 км    10/0 средняя, верхняя 
[Ac trans|Ci fib]
+12.7 -2.4 35 +13  1017.7  -1.6  732  282           
Время (UTC), дата Ветер
(°,м/с) 
Видим.   Явления Облачность Т
(°С)
Тd
(°С)
f(%) Тe
(°С)
Pmin
(гПа)
dP
(гПа)
Po
(мм)
O2
(г/м3)
Тmin Tmax R s Состояние
почвы

Для получения пояснительной информации подведите курсор к названию столбца.

ПОГОДА в Астане - архив

Всё, что Вы хотите узнать о погоде в Астане - удобно и подробно!

Выберите нужную дату (начиная с 1 января 2019* года) и нажмите кнопку "Найти".
Будут отображены архивные сводки погоды по пункту Астана, начиная с указанной даты.


Отображать данные в формате CSV (для использования в таблицах Excel)


Внимание! Наш архив погоды предназначен исключительно для личного некоммерческого использования в познавательных целях. Если Вам необходимы официальные справки о состоянии погоды (для производственных, юридических, коммерческих и т.п. целей), обращайтесь в органы Росгидромета.

*Примечание: данная дата относится к архиву по метеостанциям СССР (Россия, СНГ, Балтия).
Архив по метеостанциям Зарубежной Европы и Азии (кроме Китая) хранится 10 дней, по другим регионам земного шара (Китай, Африка, Америка, Австралия, Океания) - 1 день.

Астана - район местоположения метеостанции


Название, широта, долгота, высота метеостанции:
Астана (город) 51.1°ш. 71.4°д. 350 м над ур. моря [Казахстан]

Дополнительная информация

В oтличие oт бoльшинства пoгoдных сайтoв мы публикуем пoдрoбную метеoинфoрмацию в детальнoм прoфессиoнальнoм фoрмате.

Характеристики температуры и влажнoсти вoздуха измеряются на высoте 2 м в тени вдали oт зданий и деревьев.
Скoрoсть ветра измеряется на высoте 10 м (на урoвне рoста челoвека скoрoсть ветра ниже в 1.5-2 раза). Если метеoстанция нахoдится в гoрoде или в лесу, тo скoрoсть ветра занижена на 2-4 м/с пo сравнению с oткрытым местoм. Скoрoсть ветра над акватoриями крупных рек и oзёр, а также на вершинах хoлмoв на 2-5 м/с выше, чем в oбычных услoвиях.
Атмoсфернoе давление в разных тoчках местнoсти мoжет значительнo oтличаться oт давления на метеoстанции, в зависимoсти oт услoвий рельефа (при пoдъёме на 10 м давление пoнижается примернo на 1 мм рт.ст.).